SCP
0 0 0 0 0 0 0 0 0 0 0 0 0 0 0 0 0 0 1 1 1 1 1 1 1 1 0 0 0 0 0 0 0 0 0 0 0 0 0 0 0 0 0 0
0 0 0 0 0 0 0 0 0 0 0 0 0 0 0 0 1 1 1 1 1 1 1 1 1 1 0 0 0 0 0 0 0 0 0 0 0 0 0 0 0 0 0 0
0 0 0 0 0 0 0 0 0 0 0 0 0 0 1 1 1 1 1 1 1 1 1 1 1 1 0 0 0 1 0 0 0 0 0 0 0 0 0 0 0 0 0 0
0 0 0 0 0 0 0 0 0 0 0 0 0 0 1 1 1 1 1 1 1 1 1 1 1 1 1 1 1 1 0 0 0 0 0 0 0 0 0 0 0 0 0 0
0 0 0 0 0 0 0 0 0 0 0 0 0 1 1 1 1 1 1 1 1 1 1 1 1 1 1 1 1 1 0 0 0 0 0 0 0 0 0 0 0 0 0 0
0 0 0 0 0 0 0 0 0 0 0 0 0 0 1 1 1 1 1 1 1 1 1 1 1 1 1 1 1 1 0 0 0 0 0 0 0 0 0 0 0 0 0 0
0 0 0 0 0 0 0 0 0 0 0 0 0 0 0 0 1 1 1 1 1 1 1 1 1 1 1 1 1 0 0 0 0 0 0 0 0 0 0 0 0 0 0 0
0 0 0 0 0 0 0 0 0 0 0 0 0 0 0 0 1 1 1 1 1 1 1 1 1 1 1 1 0 0 0 0 0 0 0 0 0 0 0 0 0 0 0 0
0 0 0 0 0 0 0 0 0 0 0 0 0 0 0 0 1 1 1 1 1 1 1 1 1 1 1 1 0 0 0 0 0 0 0 0 0 0 0 0 0 0 0 0
0 0 0 0 0 0 0 0 0 0 0 0 0 0 0 0 1 1 1 1 1 1 1 1 1 1 1 1 0 0 0 0 0 0 0 0 0 0 0 0 0 0 0 0
0 0 0 0 0 0 0 0 0 0 0 0 0 0 0 0 0 1 1 1 1 1 1 0 0 1 0 0 0 0 0 0 0 0 0 0 0 0 0 0 0 0 0 0
0 0 0 0 0 0 0 0 0 0 0 0 0 0 0 0 0 0 0 0 0 0 0 0 0 0 0 0 0 0 0 0 0 0 0 0 0 0 0 0 0 0 0 0
0 0 0 0 1 1 0 0 0 0 0 0 0 1 1 1 1 1 1 0 0 0 0 0 0 0 0 0 0 0 0 0 0 0 0 0 0 0 0 0 0 0 0 0
0 0 1 1 1 1 1 1 1 1 1 1 0 1 1 1 1 1 1 1 0 0 0 0 0 0 0 0 0 0 0 0 0 0 0 0 0 0 0 0 0 0 0 0
0 0 0 1 1 1 1 1 1 1 1 1 1 0 0 0 0 0 0 1 1 0 0 0 0 0 0 0 0 0 0 0 0 0 0 0 0 0 0 0 0 0 0 0
0 0 0 0 0 0 0 0 0 0 0 0 0 0 0 0 0 0 0 0 0 0 0 0 0 0 0 0 0 0 0 0 0 0 0 0 0 0 0 0 0 0 0 0
0 0 0 0 0 0 0 0 0 0 0 0 0 0 0 0 0 0 0 0 0 0 0 0 0 0 0 0 0 0 0 0 0 0 0 0 0 0 0 0 0 0 0 0
0 0 0 0 0 0 0 0 0 0 0 0 0 0 0 0 0 0 0 0 0 0 0 0 0 0 0 0 0 0 0 0 0 0 0 0 0 0 0 0 0 0 0 0
0 0 0 0 0 0 0 0 0 0 0 0 0 0 0 0 0 0 0 0 0 0 0 0 0 0 0 0 0 0 0 0 0 0 0 0 0 0 0 0 0 0 0 0
0 0 0 0 0 0 0 0 0 0 0 0 0 0 0 0 0 0 0 0 0 0 0 0 0 0 0 0 0 0 0 0 0 0 0 0 0 0 0 0 0 0 0 0
0 0 0 0 0 0 0 0 0 0 0 0 0 0 0 0 0 0 0 0 0 0 0 0 0 0 0 0 0 0 0 0 0 0 0 0 0 0 0 0 0 0 0 0
0 0 0 0 0 0 0 0 0 0 0 0 0 0 0 0 0 0 0 0 0 0 0 0 0 0 0 0 0 0 0 0 0 0 0 0 0 0 0 0 0 0 0 0
0 0 0 0 0 0 0 0 0 0 0 0 0 0 0 0 0 0 0 0 0 0 0 0 0 0 0 0 0 0 0 0 0 0 0 0 0 0 0 0 0 0 0 0
0 0 0 0 0 0 0 0 0 0 0 0 0 0 0 0 0 0 0 0 0 0 0 0 0 0 0 0 0 0 0 0 0 0 0 0 0 0 0 0 0 0 0 0
0 0 0 0 0 0 0 0 0 0 0 0 0 0 0 0 0 0 0 0 0 0 0 0 0 0 0 0 0 0 0 0 0 0 0 0 0 0 0 0 0 0 0 0
0 0 0 0 0 0 0 0 0 0 0 0 0 0 0 0 0 0 0 0 0 0 0 0 0 0 0 0 0 0 0 0 0 0 0 0 0 0 0 0 0 0 0 0
0 0 0 0 0 0 0 0 0 0 0 0 0 0 0 0 0 0 0 0 0 0 0 0 0 0 0 0 0 0 0 0 0 0 0 0 0 0 0 0 0 0 0 0
Wind_Speed
3 3 2 2 1 1 3 5 7 6 7 8 9 9 8 6 6 7 7 7 8 7 6 6 6 5 5 5 4 5 4 3 3 2 2 1 1 1 2 2 2 1 1 1
2 2 2 1 0 2 2 2 5 5 3 6 5 6 6 7 8 7 7 8 8 8 7 7 6 6 5 5 5 5 5 4 3 2 2 2 2 1 2 2 1 1 2 2
1 3 5 3 3 2 3 2 6 5 6 5 6 8 9 9 9 7 6 6 8 8 8 7 7 6 6 4 4 4 4 4 3 3 2 2 2 2 2 2 2 2 2 2
2 3 1 8 3 4 6 2 2 3 4 6 8 7 7 8 10 9 8 8 7 7 7 6 5 5 5 4 4 4 4 4 3 3 3 2 2 2 2 2 2 2 2 2
4 3 4 5 1 4 6 1 1 5 5 5 7 7 2 3 8 10 9 7 6 6 6 5 5 5 6 4 4 4 4 4 3 3 3 2 2 2 2 2 2 2 2 2
4 3 4 5 4 3 8 1 2 4 6 7 6 4 4 5 7 8 7 6 5 5 5 5 4 6 6 5 4 4 4 4 3 3 3 2 3 3 2 2 3 2 2 2
3 3 4 5 2 4 5 6 4 4 6 5 5 6 5 5 6 7 6 6 7 7 5 4 5 6 6 5 4 4 3 3 3 3 3 2 2 2 2 2 2 1 2 2
3 2 5 4 2 4 6 4 5 5 5 5 4 4 5 5 5 6 6 6 7 7 5 4 4 6 5 4 4 3 3 3 2 2 2 2 2 1 1 2 2 1 1 1
5 6 5 1 3 4 5 6 4 4 4 5 6 5 5 4 5 5 6 5 5 6 5 4 4 5 5 4 3 4 3 2 2 2 1 2 2 2 1 1 1 1 1 2
1 1 1 2 3 3 5 6 5 5 6 7 6 5 5 5 4 4 5 4 4 5 5 3 3 3 4 3 3 4 3 2 2 1 1 1 1 2 2 2 2 2 2 3
1 1 3 4 3 3 3 5 6 5 6 7 8 6 6 5 4 4 4 3 4 5 4 2 2 2 2 3 3 3 2 2 1 1 2 1 1 2 3 3 4 5 4 4
4 4 3 2 0 3 4 4 5 6 5 5 6 7 6 5 4 4 4 3 4 4 4 3 2 2 2 2 4 4 2 1 1 1 1 1 1 1 2 3 4 5 6 5
3 2 2 1 1 2 4 3 4 5 6 5 4 5 5 4 3 4 4 4 4 4 4 4 3 2 1 2 3 4 3 2 1 1 1 2 2 2 2 3 3 4 5 6
0 2 1 1 0 1 3 4 5 6 6 5 5 5 5 4 3 3 3 3 4 4 4 4 4 2 2 2 2 2 2 2 2 2 2 2 2 2 2 2 2 3 3 4
0 1 2 2 2 2 3 4 6 5 5 4 5 5 5 4 3 2 2 2 4 4 3 3 3 3 3 2 3 3 2 2 2 1 1 1 2 2 2 2 2 2 2 2
1 1 2 2 2 2 3 5 5 4 5 5 5 5 5 4 3 2 2 2 4 3 3 3 3 3 3 3 3 2 2 3 2 2 1 1 1 1 1 1 2 2 2 2
4 2 2 2 2 2 3 4 6 5 5 4 4 4 4 3 2 2 2 2 2 3 3 3 3 2 3 3 3 3 2 2 2 2 2 2 2 2 2 2 2 2 3 3
5 5 5 5 4 3 3 4 4 5 5 4 4 4 4 3 2 2 2 1 1 0 1 2 2 2 2 2 2 2 2 2 2 2 2 1 1 2 2 2 2 2 2 2
3 3 4 3 4 4 4 4 4 4 3 4 4 4 3 3 2 1 1 2 1 1 3 2 2 1 1 2 2 2 2 2 2 1 1 1 1 1 1 1 1 2 2 1
4 3 4 4 4 4 4 3 4 3 2 3 4 3 2 2 2 1 1 1 2 3 3 2 1 1 1 1 1 1 2 2 2 2 2 2 2 2 1 1 1 1 1 1
4 3 4 4 3 3 3 4 4 3 2 3 4 4 3 2 2 2 1 1 3 2 1 1 1 0 0 0 0 1 1 1 2 2 2 2 2 2 2 2 1 1 1 2
2 2 2 2 2 1 1 2 3 3 2 2 2 3 2 2 1 0 1 2 2 2 0 0 0 1 1 1 1 1 1 1 1 1 2 2 1 1 1 1 1 2 1 2
1 2 2 1 1 1 0 1 2 3 3 3 3 3 3 3 2 2 2 2 1 1 1 1 1 1 1 1 1 1 1 1 1 1 1 2 2 1 1 1 2 2 1 1
1 1 0 0 1 2 1 1 1 2 3 3 3 3 3 2 1 2 2 2 2 1 1 1 1 1 1 1 0 0 0 1 1 1 1 1 1 1 1 1 1 1 1 1
1 0 1 2 1 0 1 0 1 0 1 1 1 2 2 3 3 2 1 2 2 1 0 1 1 1 1 0 0 0 0 1 1 1 1 1 1 1 0 1 1 1 1 1
1 1 1 1 1 1 1 1 1 1 1 1 1 1 1 1 2 2 1 1 2 2 1 0 1 1 1 1 1 1 1 1 1 1 1 1 1 1 1 1 1 1 1 1
1 1 1 1 1 1 0 1 1 1 1 2 2 1 1 1 1 1 2 1 2 2 1 1 1 1 1 1 1 1 1 1 0 0 0 1 1 1 1 1 1 1 1 1
Wind_Direction
206 213 169 197 228 132 135 167 171 198 191 210 199 184 171 154 148 149 152 147 151 153 152 151 152 159 163 169 172 167 162 170 187 185 171 157 160 171 167 157 160 155 123 116
358 16 59 46 347 84 102 130 146 148 219 223 190 149 140 143 145 152 158 157 153 150 151 155 160 165 167 176 177 165 165 178 180 162 154 164 191 187 162 166 171 142 147 139
280 321 40 327 264 168 143 170 159 186 214 173 143 150 161 161 154 153 153 152 156 162 166 169 173 172 174 173 161 154 160 168 168 167 170 192 196 187 186 186 168 159 174 157
137 54 232 247 254 133 126 127 144 152 167 160 155 158 162 159 151 154 161 162 170 168 167 169 166 160 155 150 147 144 150 163 170 169 183 202 192 188 193 181 174 179 182 177
126 161 260 288 299 136 127 75 128 135 137 129 118 86 72 171 155 159 167 167 169 167 161 157 156 153 141 138 139 145 162 177 182 175 179 188 194 208 205 186 185 187 190 179
128 153 219 248 273 154 102 65 274 147 149 146 121 119 217 196 162 155 158 156 150 138 128 145 157 142 135 138 143 164 180 180 181 179 173 185 202 212 203 184 188 181 196 196
153 195 245 262 264 93 123 211 215 157 149 147 162 184 193 171 159 156 150 139 134 126 132 155 152 138 139 146 170 183 171 162 165 179 180 179 191 203 188 178 171 183 197 216
146 171 246 293 66 139 193 183 156 145 149 146 140 131 137 141 144 140 131 132 132 132 139 146 144 142 148 170 186 160 149 155 170 182 190 168 169 194 181 168 176 203 194 228
182 207 230 233 163 173 147 136 147 142 138 127 124 132 137 141 140 136 136 143 139 140 139 142 147 149 161 181 161 144 138 156 178 185 191 173 175 190 193 183 185 208 200 215
67 333 8 65 71 83 120 132 138 132 125 120 121 120 125 128 126 130 137 147 146 134 135 150 155 148 162 164 150 140 148 169 181 176 193 168 173 180 186 201 198 201 204 211
54 308 18 18 45 72 86 100 100 103 112 126 125 119 120 131 144 146 145 154 144 140 147 166 148 131 146 148 138 140 157 175 183 191 192 185 198 206 205 219 205 197 208 204
213 224 177 227 311 77 92 106 122 116 103 112 123 128 129 142 160 156 144 136 135 138 141 161 171 153 156 163 151 147 158 190 207 203 199 185 193 280 273 241 236 218 215 207
202 222 178 183 92 93 106 111 117 121 125 122 118 125 130 138 151 142 136 138 147 151 147 151 164 176 188 195 160 159 175 198 209 206 200 197 200 202 263 301 286 261 253 238
149 97 85 59 91 87 104 109 109 106 106 120 128 121 121 116 122 138 156 166 153 142 139 141 149 177 213 201 164 172 181 194 191 201 203 204 215 217 210 218 263 289 279 257
307 160 195 167 99 87 99 104 106 104 106 106 119 124 128 128 144 169 185 153 131 125 136 148 156 196 215 205 188 195 199 208 203 194 197 207 217 225 226 223 232 252 282 293
129 78 101 116 125 121 107 120 128 136 138 132 130 138 145 150 155 163 172 148 132 150 173 184 206 212 199 196 200 206 220 224 199 193 203 219 220 223 252 249 250 246 250 250
142 162 159 164 156 138 127 137 145 146 143 142 146 139 123 116 116 133 163 179 173 188 196 203 221 217 196 200 202 207 211 216 202 197 208 216 219 216 220 213 234 246 248 241
176 178 169 168 163 147 130 128 134 139 151 156 138 120 119 125 137 170 182 156 118 78 244 216 205 193 195 199 196 199 197 198 198 204 217 228 224 211 217 224 228 235 261 270
124 142 138 138 148 145 141 140 137 134 136 134 127 131 141 146 155 158 127 122 134 219 264 254 223 191 214 232 200 191 191 190 196 195 196 211 217 222 221 226 245 251 238 233
69 84 102 103 108 117 125 131 127 122 135 136 134 131 130 148 147 130 113 166 222 230 245 240 215 234 233 246 210 193 192 192 187 187 193 202 216 232 238 235 238 251 254 236
80 82 91 93 95 108 129 139 139 151 164 155 152 155 165 176 166 148 128 272 286 284 281 219 176 232 213 255 209 216 213 188 189 197 204 209 219 232 241 241 239 244 246 241
102 105 97 95 93 98 148 153 148 148 147 148 146 142 142 160 176 210 220 221 247 273 279 228 218 222 212 154 133 193 216 199 196 196 195 195 200 215 237 248 249 262 260 239
111 116 111 120 127 143 136 163 170 158 159 163 165 172 183 198 191 187 250 256 228 228 194 218 249 223 166 152 178 204 206 182 165 164 176 180 188 197 229 261 262 264 262 254
94 121 183 207 87 76 34 275 231 186 176 175 181 186 182 182 228 228 211 209 207 200 204 221 203 175 136 126 150 160 179 193 186 185 191 191 193 194 207 240 261 268 256 255
78 109 92 84 82 165 241 281 42 49 157 184 205 198 183 173 182 209 206 196 187 164 193 219 177 164 148 152 173 189 188 208 194 156 148 158 176 211 228 254 260 254 248 230
40 97 118 177 199 215 213 156 157 211 195 207 252 245 218 189 175 168 164 169 156 138 128 145 156 141 135 138 123 101 84 59 63 79 121 136 109 71 43 23 310 286 280 285
21 32 35 4 332 314 245 175 191 198 187 181 205 227 197 165 141 138 133 134 128 124 123 134 152 147 145 135 121 124 121 108 80 90 119 107 102 109 102 75 50 9 343 333